Location: Christchurch
(43.5330°S, 172.6330°E)
Time: 19:59:07
(UTC+12:00)

SL-16 R/B - Pass Details

Date: 24 January 2019
Orbit: 842 x 846 km, 71.0° (Epoch: 21 April)

Event Time Altitude Azimuth Distance (km) Brightness Sun altitude
Rises 22:39:40 0° 325° (NW) 3,403 5.2 -14.7°
Reaches altitude 10° 22:42:09 10° 321° (NW) 2,475 4.6 -15.0°
Maximum altitude 22:47:46 59° 242° (WSW) 986 2.8 -15.7°
Drops below altitude 10° 22:53:27 10° 162° (SSE) 2,503 5.1 -16.4°
Sets 22:55:58 0° 157° (SSE) 3,444 5.7 -16.7°
